CZ-6A DEB

Satellite information

Favourite Embed

Satellite Type and Status

DEBRISIN ORBIT

Key statistics

Satellite CZ-6A DEB at a glance.

Uptime

969

Days in orbit

Revolutions

≈ 14.5

Per day

Orbit

SSO

Sun Synchronous Orbit

Inclination

98.5

Latest

Satellite identification and parameters

Extended collection of information and parameters for CZ-6A DEB.

Object identification

Identified? True

Debris? True

Object name: CZ-6A DEB

International designator: 2022-151AHA

Object number (NORAD): 56674

Object ID (CCSDS): 56674

Country: PEOPLES REPUBLIC OF CHINA (PRC)

Current information (Y/N): Y

RCS size: SMALL

Orbital parameters

Period: 99.095 minutes

Inclination: 98.5494 deg

SMA: 7093.521 km

Apoapsis: 809.144 km

Periapsis: 621.627 km

RAAN: 213.0564 deg

Eccentricy: 0.0132175

Argument of periapsis: 295.9804 deg

Mean anomaly: 62.7825 deg

Mean motion: 14.53148558 rev/day

Mean motion (dot): 0.00003386 rev/day2

B* drag term: 0.00074062 1/REarth

Two-line elements (TLE)

Creation date: July 6, 2025, 6:05 p.m.

Reference frame: TEME

Reference center: EARTH

Epoch: July 5, 2025, 11:57 p.m. UTC

TLE line 0: 0 CZ-6A DEB

TLE line 1: 1 56674U 22151AHA 25186.99805223 .00003386 00000-0 74062-3 0 9991

TLE line 2: 2 56674 98.5494 213.0564 0132175 295.9804 62.7825 14.53148558121240

Live tracking on map

Real-time ground track for satellite CZ-6A DEB.

In-orbit conjunctions

A list of the most updated potential collisions computed for object CZ-6A DEB.

Target Orbit TCA Probability of collision Miss distance Type
CZ-6A DEB SSO 2025-01-25 11:09:16 0.0003927689 80.0 (m) DEBRIS
THOR ABLESTAR DEB LEO 2024-11-16 03:00:05 0.0001019199 473.0 (m) DEBRIS
UWE-1 SSO 2024-06-13 22:04:38 0.0002448722 81.0 (m) PAYLOAD

Associated space launch

Chinese satellite reported for atmospheric/ocean/environmental/spatial parameter research purposes, details TBD.

CZ-6A DEB was lifted into orbit during the mission ‘Long March 6A | Yunhai 3’, on board a Long March 6A space rocket.

The launch took place on Nov. 11, 2022, 10:52 p.m. from Launch Complex 9A.

For more information about the launch, click the button.

Launch to space Long March 6A | Yunhai 3
Long March 6A | Yunhai 3

Agency: N/A

Status: Launch Successful

Launch date: Nov. 11, 2022, 10:52 p.m. UTC

Rocket: Long March 6A

Launch pad: Launch Complex 9A

Location: Taiyuan Satellite Launch Center, People's Republic of China

...

Latest news about this satellite

There are no fresh news available about this satellite. Check back as we update our databases every day.


Newsletter sign-up

Weekly statistics, charts and insights to help you stay on top of the space industry.